This demonstration page uses our WeatherBlox Daily Observations layout. Learn more.

Left ArrowRight Arrow

41.86663, -103.66717

Hourly Observations for June 5, 2021

Temp ( °F °C ) Dew Point ( °F °C ) Humidity (%) Winds ( mph kmh ) Pressure ( in mb ) Visibility ( mi km ) Precip ( " mm )
12:53 am 00:53 Clear 66 18.9 48 8.9 52 52 E 9 15 29.67 1005 10 16 N/A
1:53 am 01:53 Clear 65 18.3 48 8.9 54 54 E 6 9 29.66 1005 10 16 N/A
2:53 am 02:53 Clear 61 16.1 49 9.4 65 65 E 6 9 29.66 1005 10 16 N/A
3:53 am 03:53 Clear 61 16.1 49 9.4 65 65 ENE 7 11 29.67 1005 10 16 N/A
4:53 am 04:53 Clear 57 13.9 48 8.9 72 72 NNE 6 9 29.67 1005 10 16 N/A
5:53 am 05:53 Sunny 58 14.4 49 9.4 72 72 E 3 6 29.68 1005 10 16 N/A
6:53 am 06:53 Sunny 66 18.9 51 10.6 59 59 E 3 6 29.68 1005 10 16 N/A
7:53 am 07:53 Sunny 71 21.7 53 11.7 53 53 SSE 3 6 29.68 1005 10 16 N/A
8:53 am 08:53 Sunny 77 25 55 12.8 47 47 SE 6 9 29.67 1005 10 16 N/A
9:53 am 09:53 Sunny 84 28.9 52 11.1 33 33 SSE 6 9 29.65 1004 10 16 N/A
10:53 am 10:53 Sunny 89 31.7 54 12.2 30 30 SSE 9 15 29.64 1004 10 16 N/A
11:53 am 11:53 Sunny 93 33.9 52 11.1 25 25 VRB 3 6 29.63 1003 10 16 N/A
12:53 pm 12:53 Sunny 94 34.4 51 10.6 23 23 ESE 9 15 29.61 1003 10 16 N/A
1:53 pm 13:53 Sunny 97 36.1 49 9.4 20 20 SSE 6 9 29.58 1002 10 16 N/A
2:53 pm 14:53 Sunny 98 36.7 47 8.3 17 17 undefined N/A 29.56 1001 10 16 N/A
3:53 pm 15:53 Sunny 98 36.7 48 8.9 18 18 ESE 12 19 29.54 1001 10 16 N/A
4:53 pm 16:53 Sunny 97 36.1 49 9.4 20 20 SE 13 20 29.53 1000 10 16 N/A
5:53 pm 17:53 Sunny 91 32.8 50 10 25 25 SE 17 28 29.52 1000 10 16 N/A
6:53 pm 18:53 Sunny 88 31.1 50 10 27 27 S 13 20 29.53 1000 10 16 N/A
7:53 pm 19:53 Sunny 82 27.8 49 9.4 32 32 WSW 5 7 29.55 1001 10 16 N/A
8:53 pm 20:53 Clear 83 28.3 49 9.4 31 31 S 3 6 29.57 1002 10 16 N/A
9:53 pm 21:53 Mostly Clear 77 25 46 7.8 33 33 N N/A 29.59 1002 10 16 N/A
10:53 pm 22:53 Clear 74 23.3 47 8.3 38 38 S 8 13 29.55 1001 10 16 N/A
11:53 pm 23:53 Clear 70 21.1 48 8.9 46 46 E 7 11 29.53 1000 10 16 N/A

Powered by AerisWeather